Weather History for Tupelo, MS

Change the Weather History Date:

Wednesday, August 20, 2014

  Actual Average Record
Temperature  
Mean Temperature 86 °F 81 °F  
Max Temperature 96 °F 92 °F 105 °F (1980)
Min Temperature 75 °F 70 °F 57 °F (1976)
Degree Days  
Heating Degree Days 0 0  
Month to date heating degree days 0 0  
Since 1 June heating degree days 0 0  
Since 1 July heating degree days 0 0  
Cooling Degree Days 21 16  
Month to date cooling degree days 293 324  
Year to date cooling degree days 1352 1506  
Since 1 June cooling degree days 1078 1229  
Growing Degree Days 36 (Base 50)    
Moisture  
Dew Point 72 °F    
Average Humidity 68    
Maximum Humidity 94    
Minimum Humidity 42    
Precipitation  
Precipitation 0.00 in 0.12 in 1.19 in (2004)
Month to date precipitation 0.48 2.41  
Year to date precipitation 35.05 35.43  
Snow  
Snow 0.00 in 0.00 in - ()
Month to date snowfall 0.0 0.0  
Since 1 June snowfall 0.0 0.0  
Since 1 July snowfall 0.0 0.0  
Snow Depth 0.00 in    
Sea Level Pressure  
Sea Level Pressure 29.99 in    
Wind  
Wind Speed 5 mph (West)    
Max Wind Speed 13 mph    
Max Gust Speed 19 mph    
Visibility 10 miles    
Events      
T = Trace of Precipitation, MM = Missing Value Source: NWS Daily Summary

Daily Weather History Graph

Daily Weather History Graph

Search for Another Location

Airport:

Trip Planner

Search our weather history database for the weather conditions in past years. The results will help you decide how hot, cold, wet, or windy it might be!

Date:

Astronomy

Aug. 20, 2014 Rise Set
Actual Time 6:19 AM CDT 7:36 PM CDT
Civil Twilight 5:53 AM CDT 8:02 PM CDT
Nautical Twilight 5:22 AM CDT 8:33 PM CDT
Astronomical Twilight 4:49 AM CDT 9:06 PM CDT
Moon 2:04 AM CDT (8/20) 4:16 PM CDT (8/20)
Length of Visible Light 14h 08m
Length of Day
13h 16m
Waning Crescent, 20% of the Moon is Illuminated
Aug 20
Waning Crescent
Aug 25
New
Sep 2
First Quarter
Sep 8
Full
Sep 15
Last Quarter

Hourly Weather History & Observations

Time (CDT) Temp. Heat Index Dew Point Humidity Pressure Visibility Wind Dir Wind Speed Gust Speed Precip Events Conditions
12:53 AM 78.1 °F - 73.9 °F 87% 29.91 in 10.0 mi SW 4.6 mph - N/A   Clear
1:53 AM 78.1 °F - 73.9 °F 87% 29.90 in 10.0 mi Calm Calm - N/A   Clear
2:53 AM 77.0 °F - 73.9 °F 90% 29.91 in 10.0 mi Calm Calm - N/A   Clear
3:53 AM 75.9 °F - 73.0 °F 91% 29.92 in 9.0 mi Calm Calm - N/A   Clear
4:53 AM 75.9 °F - 73.0 °F 91% 29.94 in 9.0 mi SW 4.6 mph - N/A   Clear
5:53 AM 75.9 °F - 73.0 °F 91% 29.96 in 8.0 mi WSW 3.5 mph - N/A   Clear
6:53 AM 75.9 °F - 73.0 °F 91% 29.99 in 8.0 mi WSW 4.6 mph - N/A   Clear
7:53 AM 79.0 °F - 73.9 °F 84% 30.00 in 10.0 mi West 4.6 mph - N/A   Clear
8:53 AM 82.9 °F 89.4 °F 73.9 °F 74% 30.02 in 10.0 mi West 8.1 mph - N/A   Clear
9:53 AM 87.1 °F 94.5 °F 73.0 °F 63% 30.03 in 10.0 mi West 8.1 mph - N/A   Clear
10:53 AM 90.0 °F 96.9 °F 72.0 °F 55% 30.04 in 10.0 mi West 10.4 mph - N/A   Clear
11:53 AM 91.9 °F 98.4 °F 71.1 °F 50% 30.04 in 10.0 mi NW 8.1 mph 16.1 mph N/A   Clear
12:53 PM 93.0 °F 99.0 °F 70.0 °F 47% 30.03 in 10.0 mi West 10.4 mph - N/A   Clear
1:53 PM 93.9 °F 100.3 °F 70.0 °F 46% 30.04 in 10.0 mi NW 6.9 mph - N/A   Partly Cloudy
2:53 PM 95.0 °F 99.5 °F 68.0 °F 41% 30.02 in 10.0 mi Variable 6.9 mph - N/A   Clear
3:53 PM 95.0 °F 99.5 °F 68.0 °F 41% 29.99 in 10.0 mi WNW 11.5 mph - N/A   Clear
4:53 PM 93.9 °F 99.1 °F 69.1 °F 44% 29.98 in 10.0 mi West 8.1 mph - N/A   Clear
5:53 PM 93.0 °F 100.1 °F 71.1 °F 49% 29.97 in 10.0 mi West 8.1 mph - N/A   Clear
6:53 PM 89.1 °F 96.0 °F 72.0 °F 57% 29.99 in 10.0 mi WSW 5.8 mph - N/A   Clear
7:53 PM 86.0 °F 92.2 °F 72.0 °F 63% 30.02 in 10.0 mi Calm Calm - N/A   Clear
8:53 PM 82.9 °F 88.8 °F 73.0 °F 72% 30.05 in 10.0 mi Calm Calm - N/A   Clear
9:53 PM 81.0 °F 85.8 °F 73.0 °F 77% 30.06 in 9.0 mi Calm Calm - N/A   Clear
10:53 PM 79.0 °F - 73.0 °F 82% 30.06 in 10.0 mi Calm Calm - N/A   Clear
11:53 PM 77.0 °F - 73.0 °F 88% 30.06 in 10.0 mi Calm Calm - N/A   Clear